User: anonymous   Login
Location: Bonny Doon Airfield
(37.0704°N, 122.1252°W)
Time: 03:17:49
(UTC-08:00)
Language:

Hubble Space Telescope - Orbit

View from above orbital plane
View from above orbital plane
View from above satellite
View from above satellite

Ground track
Ground track

The orbit data is extracted from the following two-line orbital elements,

1 20580U 90037B   17349.91361645 +.00000500 +00000-0 +19714-4 0  9994
2 20580 028.4690 246.5631 0002571 331.2661 112.3658 15.08944816317676
Epoch (UTC): 15 December 2017 21:55:36
Eccentricity: 0.0002571
inclination: 28.4690°
perigee height: 537 km
apogee height: 541 km
right ascension of ascending node: 246.5631°
argument of perigee: 331.2661°
revolutions per day: 15.08944816
mean anomaly at epoch: 112.3658°
orbit number at epoch: 31767

The dashed part of the orbit path shows where the satellite is in the earth's shadow,  

DLR